When you browse on this site, cookies collect data to enhance your experience and personalize the content and advertising you see.
Visit our Privacy Policy to learn more. By continuing to use the site, you agree to this use of cookies and data.
  • In Spain
  • List of Countries
  • For 7 days
  • Water Temperature
  • Weather Map
  • Weather Widgets
  • user-avatar
    Login

    Hourly Weather Escaldes-Engordany

    Today, 23 October, Wednesday

    Time Temperature Precipitation Wind Pressure Humidity
    00:00 +9°C° 8.7 mm 2 mps 632 mmHg 98%
    01:00 +9°C° 4.1 mm 2 mps 632 mmHg 98%
    02:00 +10°C° 4.1 mm 1 mps 631 mmHg 97%
    03:00 +9°C° 4.1 mm 1 mps 630 mmHg 96%
    04:00 +10°C° 2.3 mm 1 mps 630 mmHg 97%
    05:00 +10°C° 2.3 mm 1 mps 631 mmHg 98%
    06:00 +9°C° 2.3 mm 2 mps 631 mmHg 98%
    07:00 +9°C° 1.2 mm 2 mps 631 mmHg 97%
    08:00 +9°C° 1.2 mm 2 mps 631 mmHg 97%
    09:00 +9°C° 1.2 mm 2 mps 631 mmHg 96%
    10:00 +10°C° 0.3 mm 2 mps 631 mmHg 89%
    11:00 +10°C° 0.3 mm 2 mps 632 mmHg 81%
    12:00 +12°C° 0.3 mm 2 mps 632 mmHg 74%
    13:00 +10°C° 0 mm 2 mps 632 mmHg 72%
    14:00 +10°C° 0 mm 2 mps 631 mmHg 70%
    15:00 +10°C° 0 mm 2 mps 631 mmHg 68%
    16:00 +9°C° 0.1 mm 2 mps 631 mmHg 76%
    17:00 +7°C° 0.1 mm 2 mps 631 mmHg 85%
    18:00 +5°C° 0.1 mm 2 mps 631 mmHg 94%
    19:00 +5°C° 0 mm 2 mps 631 mmHg 94%
    20:00 +6°C° 0 mm 1 mps 631 mmHg 93%
    21:00 +6°C° 0 mm 1 mps 632 mmHg 93%
    22:00 +6°C° 0 mm 1 mps 632 mmHg 93%
    23:00 +5°C° 0 mm 1 mps 632 mmHg 93%

    Tomorrow, 24 October, Thursday

    Time Temperature Precipitation Wind Pressure Humidity
    00:00 +5°C° 0 mm 1 mps 632 mmHg 93%
    01:00 +5°C° 0 mm 1 mps 632 mmHg 92%
    02:00 +4°C° 0 mm 1 mps 632 mmHg 92%
    03:00 +3°C° 0 mm 1 mps 632 mmHg 91%
    04:00 +3°C° 0 mm 1 mps 633 mmHg 91%
    05:00 +3°C° 0 mm 1 mps 633 mmHg 90%
    06:00 +3°C° 0 mm 1 mps 633 mmHg 90%
    07:00 +5°C° 0 mm 1 mps 634 mmHg 83%
    08:00 +7°C° 0 mm 1 mps 636 mmHg 77%
    09:00 +8°C° 0 mm 1 mps 637 mmHg 71%
    10:00 +9°C° 0 mm 1 mps 637 mmHg 66%
    11:00 +11°C° 0 mm 1 mps 638 mmHg 62%
    12:00 +12°C° 0 mm 1 mps 638 mmHg 58%
    13:00 +11°C° 0 mm 1 mps 638 mmHg 60%
    14:00 +11°C° 0 mm 1 mps 638 mmHg 61%
    15:00 +10°C° 0 mm 2 mps 638 mmHg 62%
    16:00 +8°C° 0.2 mm 2 mps 638 mmHg 72%
    17:00 +8°C° 0.2 mm 1 mps 638 mmHg 82%
    18:00 +6°C° 0.2 mm 1 mps 638 mmHg 91%
    19:00 +5°C° 0.1 mm 2 mps 639 mmHg 91%
    20:00 +5°C° 0.1 mm 2 mps 639 mmHg 91%
    21:00 +5°C° 0.1 mm 2 mps 640 mmHg 92%
    22:00 +5°C° 0 mm 2 mps 639 mmHg 92%
    23:00 +5°C° 0 mm 2 mps 639 mmHg 92%

    Day after tomorrow, 25 October, Friday

    Time Temperature Precipitation Wind Pressure Humidity
    00:00 +4°C° 0 mm 2 mps 639 mmHg 92%
    01:00 +4°C° 0 mm 2 mps 639 mmHg 92%
    02:00 +4°C° 0 mm 2 mps 639 mmHg 92%
    03:00 +4°C° 0 mm 2 mps 639 mmHg 92%
    04:00 +4°C° 0 mm 2 mps 639 mmHg 90%
    05:00 +3°C° 0 mm 2 mps 639 mmHg 88%
    06:00 +3°C° 0 mm 2 mps 639 mmHg 86%
    07:00 +6°C° 0 mm 2 mps 640 mmHg 76%
    08:00 +8°C° 0 mm 2 mps 641 mmHg 67%
    09:00 +10°C° 0 mm 2 mps 642 mmHg 57%
    10:00 +12°C° 0 mm 2 mps 643 mmHg 51%
    11:00 +14°C° 0 mm 1 mps 643 mmHg 45%
    12:00 +15°C° 0 mm 1 mps 643 mmHg 39%
    13:00 +15°C° 0 mm 1 mps 643 mmHg 42%
    14:00 +15°C° 0 mm 1 mps 642 mmHg 45%
    15:00 +15°C° 0 mm 1 mps 642 mmHg 47%
    16:00 +12°C° 0 mm 1 mps 641 mmHg 52%
    17:00 +10°C° 0 mm 1 mps 640 mmHg 57%
    18:00 +8°C° 0 mm 1 mps 640 mmHg 62%
    19:00 +8°C° 0 mm 1 mps 640 mmHg 58%
    20:00 +8°C° 0 mm 1 mps 640 mmHg 54%
    21:00 +7°C° 0 mm 2 mps 640 mmHg 51%
    22:00 +7°C° 0 mm 2 mps 640 mmHg 50%
    23:00 +7°C° 0 mm 2 mps 640 mmHg 49%

    26 October, Saturday

    Time Temperature Precipitation Wind Pressure Humidity
    00:00 +7°C° 0 mm 2 mps 640 mmHg 48%
    01:00 +7°C° 0 mm 2 mps 640 mmHg 48%
    02:00 +8°C° 0 mm 1 mps 640 mmHg 48%
    03:00 +8°C° 0 mm 1 mps 639 mmHg 48%
    04:00 +8°C° 0 mm 1 mps 639 mmHg 48%
    05:00 +8°C° 0 mm 1 mps 639 mmHg 49%
    06:00 +7°C° 0 mm 1 mps 639 mmHg 49%
    07:00 +10°C° 0 mm 1 mps 640 mmHg 47%
    08:00 +12°C° 0 mm 1 mps 641 mmHg 46%
    09:00 +13°C° 0 mm 0 mps 643 mmHg 44%
    10:00 +15°C° 0 mm 1 mps 643 mmHg 42%
    11:00 +16°C° 0 mm 1 mps 643 mmHg 41%
    12:00 +18°C° 0 mm 1 mps 643 mmHg 39%
    13:00 +18°C° 0 mm 1 mps 643 mmHg 43%
    14:00 +16°C° 0 mm 1 mps 643 mmHg 47%
    15:00 +16°C° 0 mm 1 mps 642 mmHg 50%
    16:00 +14°C° 0 mm 1 mps 642 mmHg 59%
    17:00 +12°C° 0 mm 1 mps 641 mmHg 67%
    18:00 +9°C° 0 mm 1 mps 640 mmHg 75%
    19:00 +9°C° 0 mm 1 mps 640 mmHg 75%
    20:00 +9°C° 0 mm 1 mps 640 mmHg 75%
    21:00 +8°C° 0 mm 1 mps 640 mmHg 75%
    22:00 +8°C° 0 mm 1 mps 640 mmHg 75%
    23:00 +8°C° 0 mm 1 mps 640 mmHg 75%

    27 October, Sunday

    Time Temperature Precipitation Wind Pressure Humidity
    00:00 +8°C° 0 mm 1 mps 640 mmHg 75%
    01:00 +8°C° 0 mm 1 mps 640 mmHg 74%
    02:00 +8°C° 0 mm 1 mps 640 mmHg 73%
    03:00 +8°C° 0 mm 1 mps 640 mmHg 72%
    04:00 +8°C° 0 mm 1 mps 640 mmHg 70%
    05:00 +8°C° 0 mm 1 mps 640 mmHg 68%
    06:00 +8°C° 0 mm 1 mps 640 mmHg 66%
    07:00 +10°C° 0 mm 1 mps 641 mmHg 62%
    08:00 +12°C° 0 mm 1 mps 642 mmHg 58%
    09:00 +13°C° 0 mm 0 mps 642 mmHg 54%
    10:00 +15°C° 0 mm 1 mps 643 mmHg 52%
    11:00 +16°C° 0 mm 1 mps 643 mmHg 49%
    12:00 +18°C° 0 mm 1 mps 643 mmHg 47%
    13:00 +16°C° 0 mm 1 mps 643 mmHg 50%
    14:00 +16°C° 0 mm 1 mps 642 mmHg 54%
    15:00 +16°C° 0 mm 1 mps 642 mmHg 57%
    16:00 +14°C° 0 mm 1 mps 641 mmHg 66%
    17:00 +11°C° 0 mm 1 mps 640 mmHg 75%
    18:00 +9°C° 0 mm 1 mps 640 mmHg 84%
    19:00 +9°C° 0 mm 1 mps 640 mmHg 83%
    20:00 +9°C° 0 mm 1 mps 640 mmHg 81%
    21:00 +9°C° 0 mm 1 mps 640 mmHg 80%
    22:00 +8°C° 0 mm 1 mps 640 mmHg 80%
    23:00 +8°C° 0 mm 1 mps 640 mmHg 79%

    28 October, Monday

    Time Temperature Precipitation Wind Pressure Humidity
    00:00 +8°C° 0 mm 1 mps 640 mmHg 79%
    01:00 +8°C° 0 mm 1 mps 639 mmHg 77%
    02:00 +8°C° 0 mm 1 mps 639 mmHg 76%
    03:00 +8°C° 0 mm 1 mps 639 mmHg 74%
    04:00 +8°C° 0 mm 1 mps 639 mmHg 72%
    05:00 +8°C° 0 mm 1 mps 639 mmHg 70%
    06:00 +8°C° 0 mm 1 mps 639 mmHg 68%
    07:00 +10°C° 0 mm 1 mps 640 mmHg 64%
    08:00 +12°C° 0 mm 1 mps 640 mmHg 59%
    09:00 +14°C° 0 mm 1 mps 641 mmHg 54%
    10:00 +15°C° 0 mm 1 mps 641 mmHg 52%
    11:00 +16°C° 0 mm 1 mps 641 mmHg 50%
    12:00 +18°C° 0 mm 1 mps 642 mmHg 48%
    13:00 +18°C° 0 mm 1 mps 641 mmHg 51%
    14:00 +16°C° 0 mm 1 mps 641 mmHg 53%
    15:00 +16°C° 0 mm 1 mps 640 mmHg 56%
    16:00 +14°C° 0 mm 1 mps 640 mmHg 65%
    17:00 +12°C° 0 mm 1 mps 639 mmHg 73%
    18:00 +9°C° 0 mm 1 mps 638 mmHg 81%
    19:00 +9°C° 0 mm 1 mps 639 mmHg 79%
    20:00 +9°C° 0 mm 1 mps 639 mmHg 78%
    21:00 +9°C° 0 mm 1 mps 639 mmHg 76%
    22:00 +9°C° 0 mm 1 mps 639 mmHg 75%
    23:00 +9°C° 0 mm 1 mps 639 mmHg 74%

    29 October, Tuesday

    Time Temperature Precipitation Wind Pressure Humidity
    00:00 +9°C° 0 mm 1 mps 639 mmHg 73%
    01:00 +9°C° 0 mm 1 mps 638 mmHg 72%
    02:00 +9°C° 0 mm 1 mps 638 mmHg 70%
    03:00 +9°C° 0 mm 1 mps 638 mmHg 68%
    04:00 +9°C° 0 mm 1 mps 638 mmHg 66%
    05:00 +9°C° 0 mm 1 mps 638 mmHg 64%
    06:00 +9°C° 0 mm 1 mps 638 mmHg 62%
    07:00 +10°C° 0 mm 1 mps 639 mmHg 59%
    08:00 +11°C° 0 mm 0 mps 640 mmHg 56%
    09:00 +13°C° 0 mm 0 mps 641 mmHg 53%
    10:00 +14°C° 0 mm 0 mps 641 mmHg 52%
    11:00 +15°C° 0 mm 1 mps 641 mmHg 51%
    12:00 +16°C° 0 mm 1 mps 642 mmHg 49%
    13:00 +16°C° 0 mm 1 mps 641 mmHg 54%
    14:00 +15°C° 0 mm 1 mps 641 mmHg 58%
    15:00 +15°C° 0 mm 1 mps 641 mmHg 63%
    16:00 +13°C° 0 mm 1 mps 641 mmHg 70%
    17:00 +11°C° 0 mm 1 mps 640 mmHg 78%
    18:00 +9°C° 0 mm 1 mps 640 mmHg 86%
    19:00 +9°C° 0 mm 1 mps 640 mmHg 84%
    20:00 +9°C° 0 mm 1 mps 640 mmHg 82%
    21:00 +9°C° 0 mm 1 mps 641 mmHg 81%
    22:00 +9°C° 0 mm 1 mps 641 mmHg 79%
    23:00 +9°C° 0 mm 1 mps 641 mmHg 78%
    Show more